Cordell Hull Observed Data For Previous 48 Hours

Caption
Day and Hour Reservoir Elevation (behind dam)* Tailwater Elevation (below dam)* Average Hourly Discharge*
1/17/2018 1 AM CST 500.75 448.55 0
1/17/2018 2 AM CST 500.80 447.50 0
1/17/2018 3 AM CST 500.93 446.83 0
1/17/2018 4 AM CST 500.84 448.04 8,130
1/17/2018 5 AM CST 500.78 450.48 17,180
1/17/2018 6 AM CST 500.73 450.93 17,380
1/17/2018 7 AM CST 500.69 451.29 17,540
1/17/2018 8 AM CST 500.61 451.41 17,620
1/17/2018 9 AM CST 500.53 451.53 17,700
1/17/2018 10 AM CST 500.49 451.59 17,750
1/17/2018 11 AM CST 500.44 451.84 17,900
1/17/2018 12 PM CST 500.62 450.02 8,530
1/17/2018 1 PM CST 500.62 449.62 8,450
1/17/2018 2 PM CST 500.63 449.43 8,410
1/17/2018 3 PM CST 500.77 449.17 8,330
1/17/2018 4 PM CST 500.76 449.06 8,310
1/17/2018 5 PM CST 500.80 448.90 8,270
1/17/2018 6 PM CST 500.61 450.61 17,300
1/17/2018 7 PM CST 500.37 453.37 27,900
1/17/2018 8 PM CST 500.28 454.08 28,380
1/17/2018 9 PM CST 500.17 454.47 28,725
1/17/2018 10 PM CST 500.28 452.68 18,360
1/17/2018 11 PM CST 500.42 450.22 8,610
1/18/2018 12 AM CST 500.57 447.97 0
1/18/2018 1 AM CST 500.61 446.91 0
1/18/2018 2 AM CST 500.77 446.47 0
1/18/2018 3 AM CST 500.90 445.90 0
1/18/2018 4 AM CST 500.78 447.48 8,040
1/18/2018 5 AM CST 500.69 449.99 17,020
1/18/2018 6 AM CST 500.66 450.56 17,260
1/18/2018 7 AM CST 500.43 453.23 27,780
1/18/2018 8 AM CST 500.31 453.91 28,260
1/18/2018 9 AM CST 500.20 454.30 28,575
1/18/2018 10 AM CST 500.35 452.65 18,320
1/18/2018 11 AM CST 500.26 452.56 18,320
1/18/2018 12 PM CST 500.39 450.69 8,710
1/18/2018 1 PM CST 500.42 450.22 8,610
1/18/2018 2 PM CST 500.44 449.84 8,530
1/18/2018 3 PM CST 500.52 449.62 8,470
1/18/2018 4 PM CST 500.58 449.28 8,390
1/18/2018 5 PM CST 500.59 449.09 8,350
1/18/2018 6 PM CST 500.42 450.82 17,460
1/18/2018 7 PM CST 500.41 451.21 17,620
1/18/2018 8 PM CST 500.41 451.31 17,660
1/18/2018 9 PM CST 500.35 451.35 17,700

Elevations are in feet above sea level. Discharges are in cubic feet per second and are reported at the end of the hour.